TimeEDT,TemperatureF,Dew PointF,Humidity,Sea Level PressureIn,VisibilityMPH,Wind Direction,Wind SpeedMPH,Gust SpeedMPH,PrecipitationIn,Events,Conditions,WindDirDegrees,DateUTC
12:53 AM,80.1,73.9,81,29.99,10.0,NE,3.5,-,N/A,,Partly Cloudy,50,2012-10-06 04:53:00
1:53 AM,80.1,73.9,81,29.98,10.0,East,3.5,-,N/A,,Clear,90,2012-10-06 05:53:00
2:34 AM,80.6,73.4,79,29.96,10.0,Calm,Calm,-,N/A,,Mostly Cloudy,0,2012-10-06 06:34:00
2:53 AM,80.1,75.0,85,29.95,10.0,ENE,3.5,-,N/A,,Mostly Cloudy,70,2012-10-06 06:53:00
3:53 AM,79.0,75.0,88,29.93,10.0,East,3.5,-,N/A,,Partly Cloudy,80,2012-10-06 07:53:00
4:53 AM,79.0,75.0,88,29.93,10.0,Calm,Calm,-,N/A,,Clear,0,2012-10-06 08:53:00
5:53 AM,78.1,73.9,87,29.94,10.0,Calm,Calm,-,N/A,,Clear,0,2012-10-06 09:53:00
6:37 AM,78.8,75.2,89,29.95,10.0,Calm,Calm,-,N/A,,Mostly Cloudy,0,2012-10-06 10:37:00
6:44 AM,78.8,75.2,89,29.95,10.0,Calm,Calm,-,N/A,,Scattered Clouds,0,2012-10-06 10:44:00
6:53 AM,79.0,75.0,88,29.95,10.0,Calm,Calm,-,N/A,,Scattered Clouds,0,2012-10-06 10:53:00
7:53 AM,79.0,75.9,90,29.96,10.0,Calm,Calm,-,N/A,,Partly Cloudy,0,2012-10-06 11:53:00
8:12 AM,80.6,77.0,89,29.95,9.0,NNW,3.5,-,N/A,,Mostly Cloudy,340,2012-10-06 12:12:00
8:40 AM,82.4,75.2,79,29.95,10.0,Calm,Calm,-,N/A,,Scattered Clouds,0,2012-10-06 12:40:00
8:53 AM,84.0,77.0,79,29.96,10.0,Calm,Calm,-,N/A,,Mostly Cloudy,0,2012-10-06 12:53:00
9:06 AM,84.2,75.2,74,29.96,10.0,ENE,3.5,-,N/A,,Mostly Cloudy,60,2012-10-06 13:06:00
9:46 AM,84.2,75.2,74,29.97,10.0,SSE,3.5,-,N/A,,Scattered Clouds,160,2012-10-06 13:46:00
9:53 AM,86.0,75.9,72,29.97,10.0,Calm,Calm,-,N/A,,Mostly Cloudy,0,2012-10-06 13:53:00
10:53 AM,84.9,73.0,67,29.96,10.0,SE,3.5,-,N/A,,Partly Cloudy,140,2012-10-06 14:53:00
11:53 AM,86.0,73.0,65,29.96,10.0,ENE,6.9,-,N/A,,Mostly Cloudy,70,2012-10-06 15:53:00
12:53 PM,87.1,73.0,63,29.94,10.0,East,6.9,-,N/A,,Mostly Cloudy,90,2012-10-06 16:53:00
1:53 PM,88.0,71.1,57,29.92,10.0,East,8.1,-,N/A,,Partly Cloudy,90,2012-10-06 17:53:00
2:53 PM,84.0,73.0,69,29.91,10.0,ESE,9.2,-,N/A,,Partly Cloudy,110,2012-10-06 18:53:00
3:53 PM,82.9,73.0,72,29.89,10.0,East,8.1,-,N/A,,Clear,100,2012-10-06 19:53:00
4:53 PM,82.9,73.9,74,29.89,10.0,East,9.2,-,N/A,,Partly Cloudy,80,2012-10-06 20:53:00
5:53 PM,82.9,72.0,69,29.90,10.0,East,8.1,-,N/A,,Clear,100,2012-10-06 21:53:00
6:53 PM,82.0,72.0,71,29.91,10.0,East,8.1,-,N/A,,Clear,80,2012-10-06 22:53:00
7:53 PM,82.0,73.0,74,29.92,10.0,East,5.8,-,N/A,,Clear,80,2012-10-06 23:53:00
8:53 PM,82.0,73.0,74,29.95,10.0,East,5.8,-,N/A,,Partly Cloudy,90,2012-10-07 00:53:00
9:53 PM,78.1,72.0,81,29.96,10.0,SE,12.7,-,0.00,Rain,Light Rain,140,2012-10-07 01:53:00
10:05 PM,78.8,73.4,83,29.96,8.0,SE,4.6,-,0.00,Rain-Thunderstorm,Light Thunderstorms and Rain,130,2012-10-07 02:05:00
10:20 PM,78.8,75.2,89,29.96,10.0,Calm,Calm,-,0.00,Rain,Light Rain,0,2012-10-07 02:20:00
10:53 PM,78.1,75.9,93,29.96,7.0,WNW,3.5,-,0.01,Rain,Light Rain,300,2012-10-07 02:53:00